Location: Chippewa Lake
(41.0698°N, 81.9010°W)
Time: 01:03:02
(UTC+00:00)

Cosmos 1340 - Pass Details

Date: 09 May 2021
Orbit: 500 x 503 km, 81.2° (Epoch: 24 June)

Event Time Altitude Azimuth Distance (km) Brightness Sun altitude
Exits shadow 09:24:40 10° 211° (SSW) 1,707 4.8 -9.3°
Reaches altitude 10° 09:24:41 10° 211° (SSW) 1,700 4.8 -9.2°
Maximum altitude 09:28:14 42° 283° (WNW) 728 3.1 -8.7°
Drops below altitude 10° 09:31:49 10° 355° (N) 1,714 5.7 -8.1°
Sets 09:34:02 0° 3° (N) 2,603 6.8 -7.8°
